Wind_Speed
12 12 12 12 12 12 13 13 13 13 13 13 13 13 13 13 13 14 14 14 15 15 16 16 16 17 17 17 17 17 17 16 16 17 17 16 17 16 16 17 17 17 17 17 17 17 17 17 17 17 17 17 18 18 18 18 18 19 20 22 22 20 20 18 17 18 20 19 18 18 19 22 22 20 22 23 22 20 17 16 18 19 17 17 18 19 19 19
13 13 13 14 14 14 15 15 15 15 15 15 15 15 16 16 15 15 15 15 15 16 16 16 17 17 18 18 19 19 18 18 18 18 19 18 18 19 18 18 18 18 18 18 19 19 18 18 19 19 19 19 19 19 19 19 19 20 22 25 23 20 21 21 19 19 21 22 22 22 22 23 23 23 24 25 24 22 18 16 18 18 15 17 20 20 18 18
15 15 15 16 16 16 17 17 17 17 17 17 17 17 17 17 18 18 18 18 17 17 18 18 18 18 18 18 19 19 19 18 17 18 19 19 19 19 19 19 19 19 19 19 19 20 19 19 19 20 20 20 20 20 20 19 20 22 24 26 24 21 22 22 21 20 22 24 25 24 24 25 24 24 26 27 27 24 19 17 19 19 17 18 20 19 18 17
17 17 17 18 18 18 18 18 19 19 19 19 19 19 19 19 19 19 20 20 20 20 20 20 20 20 20 20 20 20 20 20 18 17 18 18 17 17 17 18 18 18 18 19 19 19 19 19 19 20 20 21 21 21 21 20 21 24 26 26 25 23 24 23 22 22 23 24 26 26 26 26 25 26 28 29 30 27 20 18 20 21 21 20 19 18 18 18
19 19 19 19 19 20 20 20 20 20 20 20 20 20 20 20 21 21 21 21 21 21 21 22 22 22 22 22 23 23 23 20 16 15 16 15 16 16 17 17 18 18 18 18 19 19 20 20 20 20 21 22 22 23 23 22 23 27 28 27 25 25 26 25 23 24 25 26 27 27 27 28 28 28 29 31 32 28 21 20 21 23 25 24 21 19 18 18
20 20 20 20 20 21 20 21 21 21 21 21 21 22 22 22 21 22 22 22 22 22 22 23 23 23 24 24 24 24 24 20 16 18 19 19 20 20 20 19 20 21 21 21 21 22 22 22 22 22 23 23 24 24 24 25 26 29 30 29 26 26 28 27 26 27 27 28 28 28 29 29 30 30 30 34 33 27 23 23 24 24 26 26 23 20 20 21
21 21 21 20 21 21 21 21 22 22 22 22 23 23 23 23 23 23 22 23 23 23 23 23 24 24 24 26 25 26 27 22 18 22 24 23 23 22 22 21 21 22 22 23 23 24 23 23 23 23 24 24 25 26 26 26 27 30 31 29 28 28 29 27 28 30 29 30 30 30 31 30 31 32 34 36 32 28 25 24 25 25 26 27 25 23 23 24
22 22 22 22 21 22 22 22 22 23 23 24 24 24 24 24 24 24 24 24 24 25 25 25 26 25 26 27 27 29 30 23 19 22 23 23 22 21 22 21 22 22 22 22 23 23 24 24 23 23 25 25 26 27 26 27 29 31 31 29 29 30 29 29 31 32 32 32 31 33 33 31 31 35 38 37 31 28 26 25 26 27 27 27 27 26 27 27
23 23 23 23 23 23 23 23 24 24 25 25 25 26 26 26 26 26 26 26 26 26 26 26 27 27 27 28 29 32 28 20 19 21 22 23 22 21 22 23 23 24 24 24 24 24 24 25 25 25 26 27 28 29 28 29 31 32 31 32 32 32 31 32 33 33 33 33 33 35 35 32 32 37 41 35 29 28 27 26 27 28 28 28 29 29 29 29
25 25 25 25 25 25 25 25 25 25 26 26 26 26 26 26 26 26 26 26 26 27 27 27 27 28 28 28 30 32 24 19 21 23 24 24 23 24 24 25 26 26 26 27 26 26 26 27 27 28 28 29 29 30 30 31 32 33 34 35 35 34 34 34 35 35 35 35 36 38 37 33 32 38 40 32 29 30 29 28 28 28 28 28 29 29 30 31
26 26 26 26 26 26 26 26 26 26 26 27 27 27 27 26 26 26 26 26 26 27 27 27 27 28 28 28 31 29 23 22 24 24 25 24 24 25 25 26 27 27 28 28 28 28 28 29 30 29 29 29 29 30 31 32 34 35 36 38 36 36 36 37 38 37 37 37 37 39 38 35 34 38 39 31 30 33 32 31 29 30 30 29 30 30 31 32
28 28 28 27 28 27 27 27 27 28 28 28 28 28 28 28 28 27 27 28 28 28 28 28 28 28 29 29 29 26 25 26 26 25 25 24 23 24 25 27 28 29 30 29 29 29 29 30 30 30 29 30 30 30 32 33 34 36 37 39 39 39 39 39 38 36 36 38 38 39 40 40 38 38 36 32 33 34 34 34 31 32 32 32 32 32 33 33
29 29 29 29 29 29 29 29 29 29 29 29 29 29 29 29 29 29 29 29 29 29 29 29 30 30 31 31 27 26 27 28 28 28 26 25 25 25 26 27 29 30 30 31 31 30 31 31 31 31 30 31 30 30 32 34 36 37 38 41 40 41 41 39 37 36 36 37 39 39 40 43 40 38 35 33 34 36 37 36 34 34 34 35 34 34 34 34
28 29 29 29 29 29 29 29 29 29 29 29 29 29 29 29 29 29 29 29 29 30 30 30 30 30 32 31 27 28 29 29 29 29 28 27 26 26 27 28 30 31 31 31 31 31 31 31 31 30 29 29 28 29 32 35 36 36 38 40 39 39 40 38 36 36 36 38 40 38 41 47 44 39 35 34 36 38 39 39 37 37 37 37 37 36 36 35
28 29 29 29 29 29 29 29 29 29 29 29 30 30 29 30 30 30 30 30 30 30 30 30 30 31 33 31 28 28 28 27 27 27 27 27 26 26 27 28 30 30 30 30 30 30 31 31 32 30 29 28 27 29 33 35 35 34 36 40 39 40 42 37 31 33 36 40 43 41 44 49 47 41 36 36 38 39 40 41 40 39 39 39 38 38 38 37
30 29 29 29 29 29 29 29 29 29 30 30 30 30 30 30 30 29 29 29 29 29 29 29 29 30 32 30 28 27 26 26 26 26 25 25 25 25 26 28 29 29 30 31 31 32 33 34 33 33 31 29 28 30 34 35 35 35 37 41 41 41 42 37 31 32 36 42 47 45 46 51 49 44 39 37 38 39 40 42 41 40 40 40 40 40 40 39
30 30 30 30 29 29 29 29 29 29 30 30 30 30 30 30 29 29 29 29 29 29 29 29 29 31 32 30 28 26 25 25 24 23 22 22 23 24 25 27 28 29 30 30 30 31 33 34 34 33 31 29 28 29 31 32 34 37 37 40 41 39 38 37 36 33 34 42 48 49 52 55 51 45 41 38 38 39 40 41 41 41 41 40 40 40 39 38
29 29 29 29 29 29 29 29 29 29 29 30 30 30 30 30 30 29 29 29 29 30 31 30 30 32 30 27 26 24 23 23 24 24 24 25 26 27 28 29 30 31 31 30 32 33 33 34 34 32 29 29 28 28 31 32 35 38 37 40 41 39 38 38 39 36 35 42 47 50 55 56 52 47 44 39 37 40 41 41 42 42 41 40 39 39 37 35
28 28 28 28 28 28 28 28 28 28 28 29 30 30 30 31 31 31 30 30 30 30 31 31 30 31 30 27 27 28 28 28 29 30 29 29 30 31 31 32 32 33 33 33 34 34 34 35 35 33 34 35 33 32 35 36 38 39 39 40 40 41 42 41 41 38 35 42 47 49 54 56 52 48 44 42 40 42 42 41 41 41 40 39 38 37 34 32
28 28 28 28 27 27 28 27 28 28 27 28 29 30 31 31 32 32 32 32 32 32 32 32 33 35 34 32 31 32 32 31 31 31 31 31 32 33 34 35 35 35 35 34 35 35 35 38 38 37 37 37 36 36 37 37 36 37 38 39 40 42 44 42 40 37 35 45 52 49 52 55 52 49 46 43 41 41 42 42 41 38 36 35 34 33 32 29
28 28 27 27 27 27 27 26 27 27 27 28 28 29 30 31 32 33 35 34 32 32 34 33 34 37 35 32 32 32 32 32 32 33 32 33 33 34 36 37 38 38 36 34 34 35 38 41 41 39 38 38 37 37 37 36 35 35 37 39 41 41 44 43 40 38 36 44 51 49 53 57 53 51 47 42 42 42 40 37 33 31 31 31 31 30 27 19
28 28 28 27 27 27 27 26 26 26 27 27 27 28 29 30 31 33 37 38 35 33 34 34 35 37 34 32 33 33 33 34 33 33 33 33 34 35 38 39 40 40 38 35 35 38 40 43 41 36 33 33 33 32 32 33 32 33 35 38 41 40 42 45 40 38 37 42 49 49 54 59 54 52 49 41 37 31 27 26 26 29 31 32 29 22 13 4
27 28 27 27 26 26 26 26 25 26 26 26 27 27 28 29 31 33 36 40 40 35 34 35 36 37 34 32 33 32 34 36 34 33 33 34 35 35 38 40 41 41 40 39 39 40 41 39 35 31 30 31 32 31 30 30 33 35 35 37 42 40 40 44 42 37 35 39 45 45 54 61 51 41 28 15 17 24 25 27 30 31 32 28 19 8 6 4
26 26 26 25 25 26 26 25 25 25 25 25 25 25 27 28 30 32 34 39 43 39 35 36 36 35 32 30 31 31 34 35 34 35 33 34 35 35 38 39 41 42 43 42 41 44 44 40 36 34 35 35 35 34 31 32 36 38 38 38 40 38 36 40 39 35 34 35 36 39 49 50 27 9 5 6 21 32 29 28 31 30 26 14 2 6 7 3
26 25 25 25 24 24 24 24 24 24 24 23 23 24 25 27 29 31 33 38 42 39 33 30 30 27 23 22 23 26 30 32 33 33 32 34 35 36 38 38 40 42 42 41 41 45 45 39 36 36 35 34 34 33 30 30 35 39 37 33 33 32 31 32 30 32 33 28 25 27 29 26 12 8 22 30 27 25 23 26 25 18 10 2 8 6 6 5
25 25 25 25 24 23 23 23 22 23 23 22 23 24 24 26 28 29 32 35 38 33 22 15 14 13 12 12 13 15 20 22 22 24 25 27 29 31 34 35 37 38 39 39 39 41 40 35 31 29 27 26 26 26 23 23 30 36 32 26 26 27 28 29 26 26 26 20 23 22 14 21 33 33 33 28 17 18 22 18 10 3 6 8 7 5 6 5
25 25 25 24 24 24 24 23 22 23 22 22 22 23 24 24 25 27 27 24 21 17 8 3 2 2 4 5 4 4 8 8 9 12 13 15 19 22 25 28 29 31 34 33 32 32 30 27 24 23 22 21 20 21 21 19 24 32 29 25 26 27 27 28 26 25 26 29 30 24 12 20 40 38 24 21 20 21 15 7 8 12 14 10 6 6 6 5
27 26 26 26 26 25 25 23 22 23 22 22 22 21 22 22 22 23 18 9 6 6 3 1 1 3 5 6 6 9 11 11 11 12 12 13 14 15 16 19 20 23 26 28 31 30 27 27 27 27 26 26 26 26 23 21 24 28 28 26 26 26 27 27 28 26 27 30 21 11 5 10 32 40 25 21 18 12 6 10 11 12 12 10 8 7 7 5
27 28 28 29 28 26 25 23 22 22 21 21 20 20 21 21 21 20 11 4 4 6 5 6 8 10 10 9 12 15 16 16 15 14 13 13 14 15 16 18 19 21 22 25 32 31 28 29 30 30 30 30 29 25 23 22 24 25 25 27 26 25 26 24 26 26 22 21 12 6 5 7 28 38 18 10 10 4 6 11 9 4 1 4 6 4 7 7
24 24 24 24 23 22 21 20 19 19 19 19 20 20 20 20 21 16 7 7 8 9 10 11 10 12 14 15 17 18 17 16 15 14 14 15 16 16 18 20 21 24 25 27 32 31 29 30 30 30 28 26 25 23 23 23 25 25 25 28 28 26 27 23 24 22 14 13 15 16 17 12 16 16 5 3 1 10 11 6 8 8 7 9 6 6 10 11
19 19 19 19 19 18 18 18 16 17 18 19 20 20 19 20 19 11 6 8 12 12 12 9 7 8 11 15 15 14 13 12 12 14 16 17 17 17 17 18 19 23 27 29 30 30 29 28 28 26 23 23 24 23 25 25 26 27 26 27 24 19 17 13 13 11 4 8 16 18 17 16 18 9 4 2 7 10 7 19 20 12 8 12 13 14 18 19
18 18 19 19 20 20 20 19 18 19 20 19 20 20 20 19 17 16 14 12 10 6 3 1 1 1 3 7 9 11 14 15 18 21 24 25 24 23 23 23 25 25 26 28 30 32 34 33 31 30 30 30 27 25 27 29 29 28 28 25 15 7 7 4 3 3 5 11 15 11 8 17 32 33 25 21 16 18 25 19 10 9 14 20 19 21 24 25
20 21 21 22 23 22 23 22 21 21 20 21 21 21 21 15 10 13 15 12 8 7 9 10 12 14 17 20 20 22 25 27 28 27 28 28 28 29 29 30 31 30 29 31 32 32 34 37 36 32 31 29 26 25 27 29 29 27 27 24 14 4 1 3 3 2 7 12 14 13 11 15 31 36 31 26 18 15 15 11 15 25 30 27 20 20 23 25
23 24 24 25 25 24 24 24 25 25 22 23 22 20 21 19 14 15 17 18 19 21 24 25 27 28 30 31 30 30 30 30 30 28 28 29 29 31 32 31 30 32 35 34 31 26 22 27 32 27 25 28 28 27 26 25 25 25 25 22 19 16 9 5 4 3 4 6 6 9 8 10 21 24 20 20 19 20 24 29 32 29 18 10 8 12 16 18
25 26 26 27 27 27 26 26 27 26 25 26 23 22 27 27 23 24 25 24 24 25 26 27 28 30 33 35 35 34 31 26 25 26 27 28 29 30 30 28 26 29 33 28 24 21 17 25 33 29 25 29 29 25 23 23 23 23 22 21 24 27 24 16 12 13 11 5 5 10 13 24 38 40 40 39 39 37 32 26 18 8 2 4 7 10 13 17
28 29 29 30 30 29 29 29 29 27 26 26 24 29 39 37 31 30 30 28 26 25 25 25 27 29 30 32 32 29 24 22 22 23 24 26 27 29 29 28 27 29 31 30 27 21 18 27 37 31 25 26 25 22 22 21 19 17 17 19 23 26 26 21 15 17 13 6 12 16 20 35 45 47 47 38 29 19 10 8 7 3 5 8 10 11 15 19
30 31 33 33 33 32 33 33 31 28 27 25 28 37 44 43 42 41 38 37 35 32 29 27 26 26 24 25 28 25 21 21 21 21 23 23 22 25 27 25 26 28 28 29 31 27 24 32 39 37 32 30 29 27 25 25 23 20 19 22 22 18 21 20 9 6 6 5 11 17 24 32 29 31 37 27 18 15 12 13 14 8 5 7 11 14 16 19
33 34 36 37 36 35 36 35 33 31 29 29 36 44 46 46 47 45 42 41 38 34 32 30 28 27 26 29 32 31 25 23 20 19 22 22 20 22 24 23 23 25 26 27 30 29 26 29 35 39 38 34 34 32 30 31 31 31 32 32 26 16 15 16 9 3 5 5 4 10 21 28 27 34 42 39 37 34 27 23 19 14 15 19 23 25 26 28
35 36 37 38 37 36 35 33 32 30 29 34 41 45 46 48 47 45 43 41 38 35 34 34 32 30 31 33 34 32 29 26 22 21 21 21 21 22 21 21 20 19 20 23 26 27 26 24 26 34 36 31 31 33 33 33 31 31 33 33 32 27 21 19 15 9 6 5 5 8 11 17 29 41 47 48 47 39 30 27 24 25 31 34 35 36 35 35
34 34 35 35 33 32 30 29 28 29 32 38 43 45 46 47 45 44 43 40 38 36 35 35 34 32 34 35 35 34 32 31 30 29 27 26 27 26 23 24 24 22 23 24 27 30 31 27 27 33 35 31 32 37 38 35 30 27 30 30 31 32 28 23 21 22 19 10 6 6 7 16 31 42 46 47 42 34 32 33 35 39 42 43 41 39 39 39
32 32 32 32 29 28 26 25 27 30 34 38 41 42 42 43 43 44 43 40 39 37 36 36 35 35 36 36 37 36 35 35 35 35 35 34 33 31 28 27 26 25 27 28 29 30 30 30 31 34 35 36 40 43 41 35 30 26 27 29 29 30 29 19 14 23 29 20 12 11 10 18 33 41 44 44 39 37 39 41 44 45 44 42 41 40 41 40
30 29 29 28 27 26 25 25 28 29 32 35 36 37 37 38 40 40 41 41 40 37 37 37 37 37 37 37 39 39 38 39 40 38 39 39 37 35 35 34 32 31 32 32 33 34 33 33 34 35 38 43 45 42 38 34 32 30 28 28 28 28 29 23 13 17 24 23 23 20 13 16 30 39 40 38 38 41 43 43 44 44 42 41 40 39 39 39
28 27 26 26 26 25 24 26 27 28 31 33 33 33 33 35 37 37 38 39 36 35 35 35 35 36 36 37 37 37 37 38 39 41 40 40 40 40 39 38 37 36 36 35 35 35 35 33 34 35 36 40 42 41 40 38 36 35 34 33 31 31 33 33 30 29 26 23 23 17 10 12 18 24 29 31 33 37 39 41 42 43 44 44 41 40 40 40
24 23 23 23 24 24 25 27 28 29 30 31 31 32 32 33 35 36 37 36 34 34 34 34 34 34 34 35 34 35 36 33 33 35 35 34 35 36 35 33 33 34 35 34 30 29 28 28 28 23 17 17 22 25 28 30 29 30 31 30 30 34 36 36 40 36 24 23 27 18 12 17 18 18 25 30 34 38 41 44 46 47 47 46 44 43 44 44
21 21 21 22 22 23 26 28 28 28 28 29 30 31 31 33 34 34 35 35 34 34 35 36 36 35 36 37 37 38 38 35 33 33 34 33 32 32 31 29 31 32 32 32 31 29 27 25 23 17 8 6 10 13 16 18 17 17 19 19 21 24 25 27 33 30 19 24 33 24 20 30 33 30 31 33 35 40 43 45 46 45 44 44 45 47 48 48
21 21 21 21 21 23 26 27 28 28 28 29 30 31 32 34 34 33 33 35 35 34 34 35 35 35 36 37 38 39 40 40 38 37 38 39 38 36 34 31 31 30 28 28 29 29 29 27 27 26 22 21 24 25 26 25 21 18 17 19 22 23 23 24 27 27 26 29 33 32 35 40 39 37 38 37 37 40 43 44 42 41 43 46 48 49 51 51
23 22 21 20 18 20 23 25 27 29 29 29 30 31 33 34 33 33 33 33 33 33 33 34 34 34 35 36 37 37 38 39 38 38 38 38 37 36 35 35 35 34 34 34 35 37 37 35 37 38 36 35 36 36 36 36 36 34 31 31 32 32 33 36 37 39 37 29 25 29 35 35 34 36 40 41 40 40 44 45 44 47 50 52 52 52 52 52
24 24 24 22 21 21 23 24 26 27 28 30 31 32 33 33 33 33 32 30 30 30 29 31 32 32 32 33 32 30 32 34 34 34 34 33 33 32 32 34 34 35 36 35 36 37 36 37 42 43 39 40 41 42 42 42 40 37 34 33 35 36 39 43 45 45 41 33 31 35 39 41 45 47 49 50 48 47 49 50 51 52 53 53 53 52 52 52
26 27 25 25 27 27 27 27 27 27 27 28 31 33 33 33 34 33 31 31 32 33 32 33 36 36 35 35 34 33 34 34 35 36 35 36 37 38 39 40 39 39 39 37 35 32 30 34 36 33 32 34 36 39 40 37 35 35 34 31 32 37 42 45 45 44 43 43 46 48 49 51 53 52 52 52 50 49 50 50 51 51 50 50 50 50 51 52
27 28 27 27 28 28 28 28 28 29 29 29 32 34 33 34 36 35 35 35 36 37 37 37 39 39 39 39 38 37 37 37 39 40 41 42 41 40 40 39 39 38 36 34 32 25 22 27 27 26 28 30 33 38 37 34 34 34 34 35 38 42 46 47 48 48 49 49 50 49 47 48 48 47 47 46 46 47 47 47 47 46 45 45 45 47 49 50
27 27 27 27 27 27 29 29 28 30 31 31 33 34 33 35 36 37 38 39 39 40 40 39 38 36 33 32 31 31 32 32 33 34 35 36 35 31 30 29 29 30 29 27 25 22 22 26 29 29 30 32 36 38 36 36 38 38 41 45 48 50 51 50 50 50 48 47 46 44 43 44 44 43 41 39 39 39 39 39 40 40 41 43 45 47 48 47
27 28 28 28 28 28 30 30 29 30 32 33 33 33 33 35 36 37 38 37 38 40 40 39 38 37 36 35 34 34 33 33 33 32 31 32 32 31 32 32 32 34 36 34 34 34 35 36 37 33 28 32 39 37 34 32 28 31 43 50 50 52 52 49 47 44 41 40 41 42 43 44 41 37 34 32 31 31 33 35 37 39 42 44 44 44 42 42
Wind_Direction
270 272 274 276 278 280 282 284 285 287 288 289 290 289 289 288 287 286 285 285 284 284 284 284 284 284 284 284 283 283 283 285 287 288 289 290 291 294 296 296 297 298 298 297 296 295 297 296 297 297 296 296 296 297 298 300 302 299 297 294 293 297 300 304 305 303 303 304 302 299 300 298 300 303 298 296 297 302 307 311 313 314 320 322 319 315 312 308
271 272 274 277 278 281 282 283 283 284 285 285 286 287 288 288 288 288 287 287 286 286 286 285 285 286 286 286 286 286 286 286 288 289 290 289 290 291 292 292 293 294 294 293 292 292 293 292 293 292 292 292 292 293 294 297 298 295 294 290 292 298 298 298 300 301 301 299 297 297 297 297 301 304 299 296 298 302 308 319 318 312 317 322 319 315 313 312
271 273 274 275 277 278 279 280 281 282 282 282 283 283 284 284 285 286 286 286 286 287 287 286 286 287 287 287 288 288 288 288 290 292 292 291 291 291 291 291 291 291 290 290 290 290 290 290 290 289 290 290 289 289 290 292 293 291 288 287 292 296 293 293 298 299 297 294 293 295 295 296 301 300 296 297 298 299 306 321 316 308 312 318 316 311 313 315
270 272 274 275 276 276 277 278 279 280 280 280 281 281 281 282 282 283 283 283 284 285 286 286 286 287 287 288 288 288 288 289 291 292 292 292 293 293 292 291 291 291 290 289 289 290 290 289 289 289 289 288 288 287 287 289 289 286 285 287 292 293 290 292 296 295 292 291 291 293 294 296 297 294 293 296 297 297 305 317 311 305 307 312 311 305 308 314
269 271 273 274 276 276 277 278 278 279 279 279 280 280 280 281 281 282 282 283 283 283 285 285 286 286 286 286 287 287 288 291 292 290 288 290 291 291 290 289 289 290 288 288 289 288 288 288 287 288 287 287 286 285 286 287 286 284 284 287 290 292 289 290 292 289 288 288 288 290 292 293 293 292 294 294 293 296 304 311 308 304 303 306 306 299 300 307
269 270 271 273 275 276 277 278 279 279 279 280 280 280 280 280 281 282 283 284 284 285 286 286 286 286 286 285 285 285 284 285 289 286 284 284 285 284 284 284 283 284 284 284 285 285 285 285 285 285 285 284 284 284 285 285 284 284 285 288 291 291 287 288 290 287 285 285 286 289 289 290 291 292 292 290 290 294 301 306 305 300 298 300 299 296 295 297
269 269 270 271 272 274 275 276 278 279 280 281 281 281 281 282 282 282 283 284 285 286 286 287 287 286 287 285 284 282 279 282 288 285 283 283 282 284 284 285 284 283 283 283 283 283 284 283 284 285 283 283 283 283 283 284 285 285 287 291 292 289 288 291 290 287 286 286 287 288 286 287 290 292 288 285 288 294 299 302 299 295 294 293 292 293 292 291
268 269 270 270 271 272 273 274 275 276 278 279 280 281 281 282 283 283 284 285 286 286 287 287 286 287 287 285 285 281 278 286 290 282 282 283 284 286 287 288 287 286 285 285 285 284 285 285 285 284 283 284 284 284 286 286 285 286 289 292 290 289 291 292 289 288 289 289 290 289 287 288 291 291 286 283 288 295 299 298 293 292 290 289 289 290 289 287
267 268 269 270 270 271 271 272 273 273 274 275 276 277 279 280 281 282 283 284 285 285 286 287 286 286 285 285 286 280 279 291 289 280 281 283 286 288 288 289 287 287 286 285 284 284 285 285 284 283 283 284 284 286 287 286 286 289 291 290 289 291 292 290 288 289 291 292 292 290 291 291 291 289 284 284 291 295 297 293 288 288 286 286 286 286 286 285
266 267 268 269 269 270 270 271 271 272 272 273 273 274 275 276 277 279 280 281 282 283 283 283 284 284 283 284 282 278 284 292 283 280 281 282 286 287 287 286 284 285 284 283 283 282 282 281 281 282 282 282 284 286 286 286 288 290 289 288 289 290 290 289 289 290 292 294 293 292 293 291 289 286 284 288 294 296 295 290 287 286 284 284 283 282 283 282
267 267 268 268 269 270 270 271 271 272 272 273 273 274 275 275 276 276 277 278 279 279 280 281 281 281 282 281 277 279 289 288 281 280 280 282 284 283 283 282 282 282 281 281 280 280 280 279 280 280 280 281 282 283 285 286 287 288 287 286 288 288 288 288 289 292 294 295 295 294 293 289 286 283 285 292 296 296 294 290 288 287 286 284 282 280 280 280
267 268 268 269 269 270 271 272 272 273 273 274 274 275 275 276 276 276 277 277 277 277 277 278 278 279 279 277 276 284 288 284 282 282 281 283 282 279 279 278 279 278 278 278 278 278 278 278 279 278 277 278 280 283 285 286 286 286 286 286 287 287 287 287 290 293 296 296 296 295 292 288 284 283 287 294 296 295 292 290 289 288 288 285 283 281 280 279
269 269 270 270 271 272 272 273 273 274 275 275 275 276 276 276 276 276 276 276 276 276 276 277 276 277 277 276 279 284 283 282 283 284 284 283 280 276 275 275 274 274 275 276 276 277 277 277 277 276 275 276 280 282 284 285 284 283 284 284 286 287 287 290 293 297 297 295 295 294 289 285 285 286 291 296 296 294 292 292 292 289 287 286 285 284 282 281
269 270 271 271 272 272 273 273 274 274 274 275 275 276 276 277 276 277 277 277 277 276 276 276 276 276 275 277 281 281 280 283 284 285 285 281 277 275 273 272 272 273 274 274 275 276 276 277 275 274 275 277 282 283 284 283 280 282 284 283 285 284 287 294 299 300 299 295 295 293 286 286 290 291 293 297 296 294 292 292 291 288 287 286 286 286 286 286
267 268 269 270 271 271 272 273 273 274 274 275 275 276 276 277 277 277 278 278 278 278 277 277 277 277 276 278 281 281 283 285 284 284 282 280 279 276 273 271 271 272 273 274 275 275 276 275 273 274 276 278 282 283 282 280 278 282 282 281 284 284 289 298 300 297 297 294 292 290 287 289 293 292 294 296 294 294 293 290 288 287 286 286 287 288 289 290
266 267 268 269 269 270 271 272 273 274 275 275 276 277 277 277 277 277 278 278 278 279 278 277 277 276 277 280 282 282 284 284 283 282 281 281 280 277 274 272 271 271 272 273 274 275 274 273 272 273 275 276 277 278 279 276 276 280 280 281 286 288 293 299 296 293 294 293 291 290 289 290 292 294 295 294 294 294 290 287 286 285 284 286 288 290 293 294
269 269 270 270 270 271 271 272 273 274 275 276 276 277 278 278 278 278 278 278 278 278 278 277 278 277 278 282 284 283 282 281 280 281 282 281 279 277 276 274 272 271 272 272 272 273 272 272 272 272 273 274 272 272 269 269 275 283 285 287 291 294 294 296 295 295 294 292 292 292 290 289 292 294 294 293 293 292 288 285 285 284 285 288 290 293 295 295
271 272 272 272 273 273 273 273 273 274 274 276 277 277 278 278 278 278 277 277 276 277 276 276 277 277 278 281 283 281 279 278 278 280 281 281 280 278 275 274 273 272 272 272 271 271 271 272 271 269 269 268 266 263 261 270 285 290 291 291 292 293 291 292 294 297 296 292 290 291 290 290 292 295 294 292 290 288 286 285 284 286 289 291 293 294 294 295
271 271 272 273 273 274 274 274 274 275 275 277 277 278 278 278 278 278 277 276 275 274 274 275 275 274 274 278 280 279 278 278 279 280 280 280 278 276 276 274 272 271 271 271 271 271 272 271 266 263 266 269 271 273 275 284 293 291 289 288 288 288 288 290 292 297 299 293 288 288 288 290 293 294 292 290 288 286 285 285 287 290 292 293 293 293 296 301
271 272 273 273 273 274 274 274 275 275 275 276 277 279 279 279 279 278 276 274 274 274 273 273 274 273 275 279 279 278 279 279 279 279 278 278 276 276 275 273 272 270 269 270 271 273 273 268 262 264 272 278 283 286 287 289 289 286 285 284 284 285 286 289 293 298 300 293 289 291 291 291 292 291 289 288 286 284 286 289 291 292 293 294 295 298 303 307
271 272 273 273 273 274 274 274 275 276 276 276 277 278 279 280 280 280 278 275 273 274 274 274 274 274 277 280 278 278 278 277 277 277 276 276 275 274 273 272 272 271 271 271 271 272 270 264 265 273 282 286 287 287 286 284 283 282 282 282 282 282 286 292 295 298 300 293 292 296 296 292 291 290 289 288 287 288 290 291 292 293 294 295 301 307 311 313
271 271 271 271 272 273 273 274 275 276 277 278 279 279 280 281 282 283 283 280 276 275 276 277 276 277 280 280 278 278 276 275 275 275 274 272 270 269 270 270 271 272 273 272 270 270 266 264 271 282 287 287 286 285 284 283 283 281 280 280 279 283 290 293 295 299 301 295 295 300 296 292 293 294 294 295 292 293 293 291 295 297 299 304 309 316 325 338
270 270 270 270 271 272 273 273 274 276 277 278 279 280 281 282 283 284 285 286 284 280 280 281 280 280 282 279 278 277 274 274 273 270 268 266 264 263 264 265 267 270 271 270 271 270 268 270 278 284 283 282 283 283 283 282 281 279 278 277 279 286 291 291 296 303 301 297 298 301 297 295 299 302 305 309 300 302 300 298 301 303 308 312 312 340 40 92
268 269 270 271 271 271 272 272 273 274 276 277 278 279 280 282 283 284 286 288 287 287 287 287 285 284 283 278 274 270 267 268 266 264 263 261 260 260 260 262 265 267 269 271 273 274 273 276 282 282 281 281 280 280 279 280 281 280 278 277 281 290 292 291 299 304 300 298 299 303 301 300 305 324 350 333 305 306 306 306 311 314 315 312 341 58 41 34
266 267 268 270 269 269 270 271 274 275 276 278 278 280 281 282 284 286 290 292 293 296 297 293 290 289 285 276 268 262 260 261 262 263 263 261 261 261 261 262 264 267 270 273 275 276 277 280 283 282 281 280 278 278 278 279 280 280 279 283 289 295 296 295 302 304 301 301 300 309 313 303 290 280 299 307 308 309 316 322 327 327 313 167 110 49 7 351
268 268 269 270 269 269 270 272 276 277 279 281 282 282 282 284 287 290 296 298 299 303 307 301 289 284 287 274 260 259 261 262 263 263 263 262 262 262 263 263 265 268 271 273 274 275 279 283 284 282 281 280 276 278 282 281 278 278 284 294 295 295 295 295 299 297 295 296 296 302 304 291 292 296 303 311 318 322 327 339 358 59 125 115 90 28 357 335
268 269 270 270 271 271 271 273 276 276 278 281 282 282 283 287 289 294 303 305 305 313 322 318 250 237 303 286 251 268 267 262 269 271 272 270 266 265 265 265 267 269 270 271 271 274 280 286 286 284 283 280 276 282 290 288 277 278 289 297 292 291 292 292 293 289 288 292 294 294 281 279 289 296 306 308 317 334 347 59 111 130 115 83 50 10 352 293
267 267 268 268 268 269 270 272 273 273 276 277 278 279 281 285 288 295 307 310 314 338 342 269 276 283 299 290 274 282 281 278 278 277 277 275 274 274 273 274 276 276 276 274 271 274 282 285 285 285 281 281 286 291 293 286 277 281 291 292 287 288 286 285 286 285 289 295 294 292 276 262 281 288 299 308 322 353 39 101 121 138 114 64 30 355 333 280
261 261 261 262 263 264 265 267 268 270 272 273 274 276 279 283 287 294 298 263 282 325 296 268 277 283 284 275 271 274 276 276 272 271 273 273 277 282 283 287 288 285 284 279 277 282 287 287 286 283 281 285 291 293 289 280 277 281 286 285 283 282 279 279 281 282 288 289 272 253 266 261 284 290 295 316 334 40 95 91 95 130 165 9 23 342 295 286
254 255 257 259 262 264 265 265 266 268 272 276 278 282 286 286 287 289 269 245 279 302 292 283 281 278 272 264 263 264 265 270 274 280 286 285 286 286 285 286 285 284 284 282 282 287 288 286 284 284 287 292 291 287 282 278 277 278 278 278 279 279 278 276 275 277 285 277 260 264 271 261 279 298 350 348 346 123 110 55 339 309 265 271 307 279 264 279
253 256 259 262 266 269 271 272 272 274 278 284 289 294 296 291 282 266 229 264 292 294 290 295 291 277 270 263 259 262 267 276 289 298 300 298 295 292 292 293 292 291 289 285 285 286 286 285 286 289 292 293 290 284 279 276 273 273 271 271 274 280 282 276 263 259 250 265 271 276 274 248 240 253 14 9 157 162 278 305 302 289 252 271 288 271 262 266
258 261 265 268 271 274 276 277 276 277 281 284 290 292 292 287 267 242 243 274 295 293 285 345 20 27 296 276 267 276 286 289 292 296 296 294 291 288 290 291 293 294 290 286 286 286 284 282 283 287 288 288 288 283 278 275 270 266 262 257 259 283 298 275 228 215 222 251 270 272 244 233 245 256 271 273 260 272 289 299 298 284 287 292 286 271 265 266
260 264 268 269 272 274 275 277 275 275 276 278 282 282 276 268 249 240 252 261 258 270 280 280 280 280 281 281 278 281 286 287 289 289 287 284 281 279 279 280 282 281 279 281 284 286 286 284 282 284 287 289 288 284 282 279 272 269 262 250 230 202 286 256 240 265 257 257 263 254 234 244 261 269 276 277 276 283 288 291 298 297 296 294 281 266 265 268
257 260 262 265 269 270 272 275 274 273 272 272 275 273 258 244 241 254 262 263 267 280 283 281 282 281 281 282 282 284 287 288 287 286 282 278 276 276 276 277 277 273 273 276 277 279 283 284 283 284 285 286 287 286 284 278 273 273 271 256 235 226 229 232 229 234 262 277 261 229 217 249 268 275 280 278 273 279 287 291 295 297 294 294 285 267 271 274
256 258 260 263 266 269 271 272 271 271 270 269 268 262 252 246 251 262 268 274 278 283 284 284 285 283 282 284 286 289 289 284 283 283 280 277 276 277 277 275 271 269 268 267 268 274 273 276 282 284 281 283 285 282 275 270 267 267 262 247 241 244 246 246 247 251 262 298 264 226 233 258 268 273 275 277 281 284 288 286 285 296 333 335 312 288 283 285
255 258 261 263 265 269 271 270 269 267 266 266 260 255 254 256 261 266 271 277 278 280 283 284 283 281 284 288 289 291 288 281 281 282 278 276 275 275 274 273 270 268 266 264 266 269 268 275 282 283 279 280 280 274 266 261 256 253 245 243 256 261 255 250 254 258 259 274 262 247 255 267 273 280 281 285 292 283 260 252 262 308 342 322 304 288 283 280
256 260 262 264 267 269 268 267 267 263 260 256 250 254 259 263 267 268 270 273 274 275 276 277 277 277 280 284 286 287 285 281 281 277 274 274 272 272 272 272 271 269 268 268 268 266 264 270 275 276 277 278 276 271 262 254 248 245 248 259 269 267 252 247 251 264 243 244 257 249 258 269 274 281 283 289 296 271 252 276 286 281 283 297 291 282 280 276
262 263 264 265 267 267 267 266 263 260 256 249 250 257 263 265 268 269 270 271 271 271 269 268 270 272 274 277 280 282 282 280 276 271 271 271 269 274 277 272 270 270 267 266 266 264 261 265 271 274 275 276 276 271 261 255 253 252 255 259 259 253 246 237 224 243 245 245 260 235 248 262 263 269 278 286 288 282 281 285 283 270 271 283 288 286 285 284
264 264 265 265 264 263 263 262 259 254 246 243 249 256 261 264 267 269 269 268 267 266 265 266 267 269 271 273 276 278 278 276 274 270 269 265 263 271 276 274 271 268 261 259 262 264 262 262 268 273 273 271 270 265 258 256 254 249 248 250 248 248 250 241 230 236 240 246 262 235 231 251 261 270 282 287 286 283 282 283 280 280 284 288 290 289 288 287
265 264 264 264 262 260 259 256 253 246 240 244 252 257 260 264 268 269 268 266 265 264 264 267 268 268 270 272 273 274 274 272 271 268 265 263 264 267 269 269 269 267 264 262 262 265 263 257 256 265 268 263 259 261 264 263 257 246 241 243 245 249 252 253 248 246 246 252 267 256 241 248 259 272 279 279 278 278 279 281 283 285 288 290 291 290 289 288
263 262 261 262 261 259 256 249 245 243 242 248 254 257 258 262 265 267 267 265 264 264 265 268 269 269 271 271 272 272 272 271 271 270 268 267 267 267 266 266 267 267 269 269 265 264 262 258 253 254 256 257 259 265 267 264 260 256 252 250 255 258 256 256 253 245 244 242 242 254 260 252 256 267 272 269 272 279 280 282 285 287 289 290 291 291 290 287
259 257 257 258 256 256 253 248 248 247 245 249 255 257 258 261 264 266 267 266 265 265 267 268 269 270 270 270 272 273 274 274 273 272 272 272 271 271 271 271 271 270 271 270 268 267 266 264 258 253 252 258 263 265 262 259 262 265 263 260 262 260 251 246 248 250 247 244 248 255 261 258 259 265 270 271 275 280 282 283 286 288 290 291 291 288 286 283
255 255 256 254 252 252 249 247 248 245 245 252 259 259 258 260 263 266 266 266 267 268 269 269 269 270 271 271 273 274 274 275 275 274 274 276 277 276 275 274 273 273 271 268 267 268 264 256 253 256 259 260 262 262 259 259 262 262 262 261 257 253 250 249 253 259 257 253 255 258 260 268 274 274 273 275 277 280 282 284 286 289 290 290 288 285 284 284
254 254 253 252 251 249 246 247 248 246 250 256 259 259 260 260 262 265 266 266 267 269 270 270 270 270 271 272 273 274 275 276 277 277 278 277 277 276 275 275 276 274 270 266 265 265 258 250 249 256 265 262 260 261 260 259 258 257 260 261 258 259 260 258 259 261 261 256 255 255 258 264 270 274 273 275 278 279 282 284 285 285 285 285 286 288 290 291
252 252 251 251 250 247 247 251 252 252 254 256 256 259 261 261 262 265 266 267 267 268 269 270 270 269 270 272 273 273 274 275 277 279 280 279 279 279 280 280 278 271 264 263 263 261 257 251 247 246 247 253 256 260 265 268 265 256 252 254 258 262 263 262 263 261 260 260 256 251 261 267 267 269 271 272 274 277 278 279 279 280 282 286 289 292 295 297
254 253 252 252 250 247 249 252 253 254 255 256 257 260 261 262 264 265 266 268 268 268 269 270 271 272 271 271 272 273 273 274 275 276 278 278 280 282 281 279 276 270 266 267 267 268 270 266 260 259 259 260 264 267 270 273 277 275 266 259 260 259 260 267 268 260 259 265 260 255 263 269 269 268 268 269 272 275 275 275 278 282 287 291 292 293 296 298
257 256 254 252 250 249 248 247 247 250 254 254 254 258 262 265 267 267 268 270 270 271 271 271 271 272 272 272 274 276 276 277 276 277 278 278 278 278 276 275 274 273 274 274 272 275 280 278 274 273 272 271 273 276 276 276 279 282 282 278 275 272 271 271 270 267 269 272 269 265 268 271 273 275 276 278 280 280 279 281 286 289 291 293 293 293 293 294
257 257 255 252 250 250 250 249 247 249 253 252 252 258 266 269 270 271 271 271 270 270 272 272 273 274 275 276 277 278 278 279 278 278 279 279 278 278 278 277 278 279 280 280 277 277 278 277 277 278 277 276 276 277 277 277 279 280 280 279 278 277 274 271 270 271 272 269 269 274 277 279 282 283 284 285 285 283 284 286 289 290 291 292 291 290 291 291
258 257 257 255 254 255 256 256 256 256 257 256 255 261 267 269 270 269 267 266 267 267 268 269 270 271 272 272 273 273 275 276 277 277 277 278 279 280 281 281 281 281 281 281 280 280 278 278 279 279 278 277 276 277 278 278 279 278 276 276 275 271 269 269 270 272 271 269 272 277 278 279 282 282 282 283 283 282 284 285 286 288 288 288 288 288 290 291
260 260 259 258 258 258 258 258 257 258 258 256 255 260 265 265 268 268 265 263 264 266 267 268 269 270 270 272 273 273 273 275 276 276 277 278 279 281 281 281 280 280 280 279 279 276 272 273 274 274 275 274 274 276 277 275 276 279 280 279 274 269 269 271 273 274 274 275 279 280 279 278 279 278 278 278 278 279 280 281 281 282 282 282 283 285 287 288
261 261 260 259 258 258 257 257 256 256 258 257 257 260 262 263 266 267 266 265 265 266 266 266 266 267 268 271 272 272 272 271 270 269 269 271 272 273 274 274 275 276 273 271 271 268 268 275 279 282 282 280 277 278 279 278 281 284 284 279 272 271 275 277 278 278 278 278 279 279 276 276 277 276 275 275 274 273 272 273 274 276 277 280 282 283 283 283
260 260 260 260 260 259 259 260 259 259 261 262 263 263 263 263 265 266 267 268 268 268 268 266 265 265 264 264 265 266 267 265 263 265 267 270 270 270 271 272 273 274 273 272 273 274 275 280 287 289 286 283 283 284 286 291 292 284 278 276 276 280 283 282 281 280 278 274 271 270 271 274 276 276 276 274 270 267 266 268 271 273 275 277 277 277 277 279
Height
3188 3188 3189 3189 3189 3189 3189 3189 3189 3189 3189 3189 3189 3189 3189 3189 3189 3189 3189 3189 3189 3189 3189 3188 3188 3188 3188 3188 3188 3188 3188 3188 3188 3187 3187 3187 3187 3186 3186 3186 3186 3185 3185 3185 3185 3185 3185 3184 3184 3184 3183 3183 3183 3183 3182 3182 3182 3181 3180 3178 3178 3179 3178 3178 3178 3177 3176 3175 3175 3175 3174 3173 3173 3173 3172 3170 3170 3171 3172 3172 3171 3170 3170 3169 3168 3167 3166 3166
3187 3187 3188 3188 3188 3188 3188 3188 3188 3188 3188 3188 3188 3188 3188 3188 3188 3188 3188 3188 3188 3188 3188 3187 3187 3187 3187 3186 3186 3186 3186 3186 3186 3186 3186 3186 3185 3185 3185 3184 3184 3184 3184 3183 3183 3183 3183 3183 3182 3182 3182 3181 3181 3181 3181 3180 3180 3179 3178 3176 3176 3177 3176 3176 3176 3176 3174 3173 3173 3173 3172 3171 3171 3171 3169 3168 3168 3169 3169 3170 3170 3169 3169 3168 3166 3165 3165 3164
3186 3186 3186 3186 3187 3187 3186 3187 3187 3187 3187 3187 3187 3187 3187 3187 3187 3187 3187 3187 3187 3186 3186 3186 3186 3186 3185 3185 3185 3184 3184 3185 3185 3185 3184 3184 3184 3183 3183 3183 3183 3182 3182 3182 3181 3181 3181 3181 3180 3180 3180 3179 3179 3179 3179 3179 3178 3177 3175 3174 3175 3176 3174 3174 3174 3174 3173 3171 3170 3170 3170 3169 3170 3169 3166 3165 3165 3167 3168 3168 3167 3166 3167 3167 3165 3164 3163 3163
3185 3185 3185 3185 3185 3185 3185 3185 3185 3185 3185 3185 3185 3185 3185 3185 3185 3185 3185 3185 3185 3185 3185 3184 3184 3184 3184 3184 3183 3183 3183 3183 3184 3184 3183 3182 3182 3182 3182 3181 3181 3180 3180 3180 3180 3179 3179 3179 3178 3178 3178 3177 3177 3177 3176 3177 3176 3174 3173 3172 3173 3173 3172 3172 3173 3172 3171 3169 3168 3168 3167 3167 3167 3166 3164 3163 3162 3164 3166 3167 3166 3164 3164 3164 3163 3162 3161 3161
3183 3183 3184 3184 3184 3184 3184 3184 3184 3184 3184 3184 3184 3184 3184 3184 3184 3184 3184 3183 3183 3183 3183 3183 3183 3183 3182 3182 3182 3181 3181 3181 3182 3182 3181 3181 3180 3180 3180 3180 3179 3179 3179 3178 3178 3178 3177 3177 3176 3176 3176 3175 3175 3174 3174 3174 3173 3171 3170 3170 3171 3171 3170 3170 3170 3169 3168 3167 3166 3166 3165 3165 3164 3164 3162 3161 3160 3161 3164 3165 3164 3162 3161 3161 3161 3160 3159 3159
3181 3182 3182 3182 3182 3182 3182 3182 3182 3182 3182 3182 3182 3182 3182 3182 3182 3182 3182 3182 3182 3182 3182 3181 3181 3181 3181 3180 3180 3180 3179 3180 3181 3180 3180 3179 3179 3179 3178 3178 3178 3177 3177 3176 3176 3176 3175 3175 3174 3174 3174 3173 3172 3172 3172 3171 3171 3169 3167 3168 3169 3169 3167 3167 3167 3166 3165 3164 3164 3163 3163 3162 3161 3161 3160 3157 3158 3160 3162 3162 3161 3160 3159 3157 3158 3157 3157 3156
3180 3180 3180 3180 3180 3180 3180 3180 3180 3180 3180 3180 3180 3180 3180 3180 3180 3180 3180 3180 3180 3180 3180 3179 3179 3179 3179 3178 3178 3178 3177 3179 3180 3179 3177 3177 3177 3176 3176 3176 3176 3175 3175 3174 3174 3173 3173 3173 3172 3172 3171 3171 3170 3170 3169 3168 3168 3166 3165 3166 3166 3165 3164 3165 3164 3162 3162 3161 3161 3161 3160 3161 3159 3158 3156 3153 3156 3159 3159 3160 3158 3157 3156 3155 3155 3155 3154 3153
3177 3178 3178 3178 3178 3178 3178 3178 3178 3178 3178 3178 3178 3178 3178 3178 3178 3178 3178 3178 3178 3178 3178 3177 3177 3177 3177 3176 3176 3174 3174 3177 3179 3177 3175 3175 3175 3175 3174 3174 3174 3173 3173 3172 3172 3171 3171 3170 3170 3170 3169 3168 3168 3167 3167 3166 3165 3163 3163 3163 3163 3162 3162 3162 3160 3159 3159 3158 3158 3157 3157 3158 3157 3154 3150 3150 3154 3156 3157 3157 3155 3154 3153 3153 3152 3152 3151 3150
3175 3175 3175 3176 3176 3176 3176 3176 3176 3176 3176 3176 3175 3176 3176 3176 3176 3176 3176 3176 3176 3175 3175 3175 3175 3175 3174 3174 3173 3171 3172 3176 3176 3174 3174 3173 3173 3173 3173 3172 3171 3171 3170 3170 3169 3169 3169 3168 3168 3167 3166 3166 3165 3165 3164 3163 3161 3161 3160 3160 3159 3159 3160 3159 3157 3157 3156 3156 3155 3153 3153 3156 3155 3150 3145 3148 3152 3153 3153 3153 3151 3150 3150 3150 3149 3149 3148 3147
3172 3173 3173 3173 3173 3173 3173 3173 3173 3173 3173 3173 3173 3173 3173 3173 3173 3173 3174 3174 3173 3173 3173 3173 3172 3172 3172 3172 3171 3167 3170 3174 3173 3172 3171 3171 3171 3171 3171 3170 3169 3168 3167 3167 3167 3166 3166 3165 3164 3164 3163 3163 3162 3162 3161 3160 3159 3158 3157 3156 3156 3156 3156 3155 3154 3154 3153 3153 3152 3148 3149 3151 3151 3146 3142 3146 3150 3149 3149 3148 3148 3147 3146 3146 3145 3145 3145 3144
3170 3170 3170 3170 3170 3170 3171 3171 3171 3171 3170 3170 3170 3170 3170 3170 3171 3171 3171 3171 3171 3170 3170 3170 3170 3170 3169 3170 3168 3166 3169 3170 3169 3169 3169 3169 3169 3169 3168 3167 3166 3166 3164 3164 3164 3163 3163 3162 3161 3161 3160 3159 3160 3159 3158 3158 3156 3155 3153 3151 3153 3153 3153 3152 3151 3151 3151 3149 3148 3144 3143 3145 3147 3142 3140 3144 3146 3144 3144 3144 3144 3143 3142 3143 3141 3141 3141 3140
3167 3167 3167 3167 3167 3168 3168 3168 3168 3168 3168 3168 3168 3168 3168 3168 3168 3168 3168 3168 3168 3167 3167 3167 3167 3167 3166 3166 3165 3166 3167 3166 3166 3166 3166 3167 3167 3166 3165 3164 3163 3162 3161 3161 3160 3160 3159 3159 3158 3158 3157 3156 3157 3157 3155 3155 3153 3152 3150 3147 3149 3149 3149 3149 3149 3149 3148 3145 3144 3140 3135 3137 3141 3139 3139 3142 3141 3140 3138 3138 3140 3139 3138 3138 3137 3137 3136 3136
3164 3164 3164 3165 3165 3165 3165 3165 3165 3165 3165 3165 3165 3165 3165 3165 3165 3165 3165 3165 3164 3164 3164 3164 3163 3163 3163 3162 3164 3164 3163 3163 3163 3163 3163 3164 3163 3163 3162 3161 3160 3159 3158 3158 3157 3157 3156 3155 3155 3154 3154 3153 3154 3155 3153 3152 3149 3148 3147 3144 3144 3145 3144 3147 3147 3146 3146 3142 3139 3137 3129 3128 3135 3136 3138 3139 3137 3135 3133 3133 3134 3134 3133 3132 3132 3132 3132 3133
3161 3161 3162 3162 3162 3162 3162 3162 3162 3162 3162 3162 3161 3161 3161 3162 3161 3161 3161 3161 3161 3161 3161 3160 3160 3160 3159 3159 3162 3161 3160 3161 3160 3160 3160 3160 3159 3159 3159 3158 3157 3156 3155 3155 3154 3154 3153 3152 3151 3150 3151 3151 3152 3152 3150 3148 3145 3146 3144 3140 3141 3140 3140 3145 3145 3142 3141 3138 3135 3133 3123 3120 3129 3133 3135 3136 3132 3130 3129 3128 3129 3128 3128 3127 3127 3127 3127 3128
3158 3159 3159 3159 3159 3159 3159 3159 3159 3159 3159 3158 3158 3158 3158 3158 3158 3158 3158 3158 3157 3157 3157 3157 3157 3156 3154 3156 3159 3158 3158 3158 3157 3156 3156 3155 3156 3156 3156 3155 3154 3153 3152 3152 3151 3151 3150 3148 3147 3147 3148 3149 3150 3149 3147 3143 3142 3144 3141 3136 3138 3136 3135 3142 3144 3140 3138 3133 3130 3127 3118 3114 3122 3127 3131 3131 3128 3127 3124 3123 3124 3123 3122 3122 3122 3122 3122 3123
3155 3156 3156 3156 3156 3156 3156 3156 3156 3156 3155 3155 3155 3155 3155 3155 3155 3155 3154 3154 3154 3153 3153 3153 3153 3152 3151 3153 3155 3155 3155 3154 3153 3153 3152 3153 3152 3152 3152 3151 3151 3150 3149 3149 3148 3148 3146 3145 3144 3144 3145 3147 3148 3146 3143 3139 3138 3141 3139 3133 3135 3134 3132 3135 3140 3140 3137 3129 3124 3123 3115 3110 3115 3121 3126 3127 3124 3123 3120 3118 3119 3118 3118 3118 3117 3118 3118 3118
3153 3153 3153 3153 3153 3153 3153 3153 3153 3153 3152 3152 3152 3152 3152 3151 3151 3151 3151 3151 3150 3150 3150 3149 3149 3148 3147 3149 3151 3152 3151 3150 3150 3150 3150 3150 3149 3149 3149 3148 3147 3147 3146 3146 3145 3144 3143 3142 3141 3141 3142 3143 3144 3143 3139 3136 3136 3137 3136 3132 3131 3132 3131 3130 3133 3137 3137 3127 3120 3117 3110 3106 3110 3116 3119 3121 3120 3118 3116 3114 3114 3114 3114 3114 3114 3113 3113 3112
3149 3149 3150 3150 3150 3150 3150 3150 3150 3150 3149 3149 3149 3149 3148 3148 3148 3148 3147 3147 3147 3147 3146 3146 3146 3145 3144 3146 3147 3148 3148 3147 3147 3147 3147 3147 3146 3146 3145 3144 3144 3143 3143 3143 3142 3141 3140 3139 3138 3138 3139 3140 3140 3140 3136 3134 3134 3134 3134 3131 3128 3129 3128 3127 3128 3132 3133 3124 3117 3113 3104 3101 3106 3110 3113 3115 3116 3112 3111 3111 3110 3110 3111 3111 3110 3109 3108 3108
3146 3146 3146 3147 3147 3147 3147 3147 3147 3147 3146 3146 3145 3145 3145 3144 3144 3144 3143 3143 3143 3143 3142 3142 3142 3141 3141 3144 3145 3144 3145 3145 3145 3145 3144 3144 3143 3142 3141 3140 3140 3139 3139 3139 3138 3137 3137 3135 3133 3134 3135 3136 3137 3137 3134 3133 3134 3132 3131 3129 3127 3125 3123 3125 3125 3126 3128 3118 3112 3111 3102 3098 3102 3105 3107 3109 3111 3108 3106 3107 3107 3107 3107 3106 3106 3104 3104 3104
3143 3143 3143 3143 3143 3143 3143 3144 3143 3143 3144 3143 3142 3142 3141 3141 3140 3139 3139 3139 3139 3139 3139 3138 3138 3137 3138 3140 3141 3140 3141 3141 3141 3141 3141 3140 3140 3138 3137 3136 3135 3135 3135 3136 3135 3134 3133 3129 3127 3130 3132 3134 3136 3136 3134 3132 3132 3129 3127 3126 3124 3122 3118 3121 3122 3123 3125 3112 3103 3106 3100 3094 3096 3098 3102 3104 3105 3104 3103 3103 3102 3103 3103 3102 3102 3101 3101 3101
3140 3140 3140 3140 3140 3140 3140 3140 3140 3140 3140 3140 3140 3139 3138 3137 3136 3135 3133 3135 3136 3135 3134 3135 3134 3132 3134 3137 3136 3136 3136 3136 3137 3137 3137 3137 3136 3134 3133 3131 3130 3130 3131 3133 3132 3130 3128 3122 3122 3129 3132 3133 3133 3133 3131 3129 3129 3127 3125 3122 3120 3119 3115 3116 3119 3119 3121 3109 3097 3101 3094 3087 3091 3092 3095 3100 3099 3099 3100 3099 3098 3099 3099 3098 3098 3098 3097 3097
3136 3136 3137 3137 3137 3137 3137 3137 3137 3137 3137 3137 3137 3137 3135 3134 3133 3131 3128 3127 3131 3133 3131 3131 3130 3128 3131 3132 3131 3132 3131 3131 3132 3132 3133 3133 3132 3131 3129 3127 3126 3126 3127 3128 3127 3125 3121 3118 3122 3129 3130 3130 3129 3128 3128 3127 3126 3124 3123 3120 3116 3117 3114 3111 3114 3115 3116 3106 3095 3096 3086 3078 3085 3086 3087 3092 3093 3096 3096 3095 3095 3095 3095 3095 3095 3095 3094 3093
3133 3133 3134 3134 3134 3134 3134 3135 3135 3134 3134 3134 3134 3134 3132 3131 3130 3128 3125 3120 3121 3127 3128 3126 3125 3124 3127 3127 3126 3128 3125 3125 3127 3127 3128 3127 3127 3127 3125 3123 3123 3122 3122 3123 3123 3121 3117 3117 3123 3128 3127 3126 3125 3125 3125 3124 3123 3121 3120 3118 3113 3115 3114 3107 3108 3112 3111 3105 3096 3094 3080 3070 3079 3081 3081 3086 3088 3091 3093 3091 3092 3091 3091 3091 3091 3092 3091 3090
3130 3130 3131 3131 3132 3132 3132 3132 3132 3132 3132 3132 3132 3131 3130 3129 3127 3125 3123 3117 3113 3119 3123 3122 3120 3119 3121 3122 3121 3121 3119 3120 3121 3121 3123 3123 3122 3123 3121 3121 3120 3118 3119 3120 3120 3116 3113 3117 3122 3123 3123 3122 3121 3121 3122 3121 3118 3116 3117 3117 3112 3113 3114 3107 3106 3106 3104 3103 3099 3093 3077 3066 3073 3077 3077 3083 3085 3086 3088 3087 3087 3087 3086 3086 3087 3088 3088 3086
3127 3128 3128 3128 3129 3129 3129 3129 3129 3129 3129 3129 3129 3128 3127 3126 3125 3122 3120 3115 3108 3111 3116 3116 3114 3114 3115 3115 3115 3115 3114 3115 3116 3117 3118 3119 3119 3119 3118 3119 3117 3115 3117 3118 3116 3111 3110 3116 3118 3118 3117 3118 3117 3116 3119 3119 3114 3111 3112 3114 3112 3111 3110 3107 3107 3103 3098 3098 3098 3096 3085 3066 3066 3073 3074 3078 3081 3081 3083 3083 3082 3082 3082 3083 3084 3085 3084 3083
3125 3125 3125 3125 3126 3126 3127 3127 3127 3126 3126 3127 3127 3126 3125 3123 3122 3121 3119 3113 3106 3107 3110 3110 3110 3110 3110 3111 3111 3111 3112 3112 3113 3114 3114 3115 3115 3115 3115 3115 3115 3114 3114 3115 3113 3107 3107 3113 3114 3114 3113 3113 3113 3113 3115 3116 3111 3107 3109 3111 3111 3109 3107 3105 3105 3103 3097 3095 3094 3098 3097 3075 3059 3065 3071 3073 3076 3078 3079 3079 3077 3078 3079 3081 3083 3082 3081 3080
3122 3122 3122 3122 3123 3123 3124 3125 3125 3124 3124 3125 3124 3123 3123 3121 3120 3120 3118 3113 3106 3105 3107 3107 3107 3108 3109 3109 3110 3110 3110 3110 3111 3111 3112 3112 3112 3112 3112 3112 3112 3112 3111 3112 3109 3106 3107 3110 3111 3111 3111 3110 3110 3111 3112 3113 3110 3105 3105 3108 3108 3106 3105 3103 3102 3101 3096 3093 3091 3092 3099 3087 3062 3058 3068 3070 3073 3075 3075 3075 3075 3076 3078 3079 3081 3080 3078 3078
3119 3119 3119 3120 3120 3121 3121 3122 3122 3121 3122 3122 3121 3121 3120 3120 3119 3119 3120 3116 3107 3104 3106 3106 3107 3108 3108 3109 3109 3109 3109 3110 3110 3109 3110 3110 3110 3110 3110 3109 3111 3109 3109 3109 3105 3105 3107 3108 3108 3108 3108 3107 3107 3108 3109 3109 3107 3104 3104 3105 3104 3104 3103 3101 3100 3098 3096 3092 3088 3086 3094 3093 3068 3056 3065 3068 3070 3074 3073 3073 3074 3075 3078 3078 3078 3078 3077 3077
3115 3116 3116 3116 3117 3118 3118 3119 3119 3119 3120 3119 3119 3119 3118 3119 3118 3118 3120 3117 3106 3103 3106 3106 3106 3108 3108 3108 3109 3108 3108 3108 3108 3107 3108 3109 3108 3109 3108 3108 3109 3107 3107 3106 3102 3103 3106 3105 3105 3104 3105 3105 3105 3105 3105 3105 3104 3102 3102 3101 3101 3101 3099 3100 3098 3096 3097 3091 3085 3085 3091 3092 3070 3055 3063 3067 3068 3072 3071 3072 3074 3076 3078 3078 3077 3077 3076 3076
3111 3112 3112 3113 3113 3115 3115 3116 3117 3117 3117 3117 3116 3117 3117 3117 3116 3117 3117 3110 3103 3104 3105 3104 3105 3106 3106 3106 3106 3106 3106 3106 3106 3106 3106 3107 3106 3107 3107 3106 3106 3105 3104 3103 3100 3101 3103 3102 3101 3101 3102 3103 3103 3103 3102 3101 3101 3100 3100 3098 3098 3098 3096 3098 3095 3095 3097 3087 3080 3083 3087 3091 3075 3056 3060 3065 3066 3070 3069 3070 3074 3076 3077 3076 3076 3076 3075 3074
3108 3109 3109 3110 3110 3111 3112 3113 3114 3114 3115 3114 3114 3114 3114 3114 3114 3114 3109 3103 3103 3104 3103 3102 3103 3103 3103 3104 3104 3104 3105 3105 3105 3105 3105 3105 3105 3105 3105 3105 3104 3103 3101 3100 3100 3100 3099 3098 3098 3098 3100 3100 3100 3100 3099 3098 3098 3097 3097 3096 3096 3096 3094 3094 3093 3095 3095 3083 3078 3080 3082 3086 3072 3055 3059 3065 3065 3067 3066 3068 3071 3073 3075 3075 3075 3074 3072 3071
3105 3105 3106 3106 3107 3108 3110 3111 3111 3112 3112 3112 3113 3112 3112 3111 3108 3105 3102 3103 3105 3103 3101 3102 3102 3102 3102 3102 3103 3103 3103 3103 3103 3103 3103 3103 3103 3103 3103 3103 3103 3101 3098 3097 3098 3097 3095 3095 3096 3096 3096 3097 3097 3096 3096 3095 3094 3093 3093 3094 3096 3096 3095 3093 3092 3092 3089 3079 3076 3078 3080 3076 3060 3052 3061 3065 3064 3065 3065 3066 3067 3069 3072 3073 3072 3070 3069 3068
3101 3102 3103 3103 3104 3106 3107 3108 3109 3109 3110 3110 3110 3110 3110 3108 3101 3097 3099 3104 3104 3101 3101 3102 3101 3101 3101 3100 3101 3102 3101 3101 3102 3102 3101 3101 3100 3100 3101 3101 3101 3100 3096 3095 3095 3093 3090 3090 3091 3092 3092 3093 3093 3093 3093 3091 3091 3090 3089 3090 3092 3095 3096 3093 3090 3089 3083 3076 3075 3077 3079 3070 3054 3051 3059 3061 3062 3063 3063 3063 3064 3065 3067 3068 3067 3066 3064 3063
3098 3099 3099 3099 3101 3102 3104 3105 3105 3106 3108 3108 3108 3108 3106 3100 3094 3094 3097 3099 3100 3100 3100 3099 3099 3099 3097 3097 3098 3099 3099 3099 3099 3099 3098 3098 3097 3096 3096 3097 3097 3096 3094 3093 3092 3090 3088 3084 3084 3088 3089 3089 3089 3090 3090 3089 3088 3087 3087 3088 3087 3087 3089 3086 3084 3082 3077 3075 3075 3076 3074 3064 3053 3052 3055 3057 3059 3060 3060 3060 3061 3061 3062 3063 3062 3061 3059 3058
3094 3095 3095 3096 3097 3098 3100 3101 3101 3102 3104 3104 3105 3105 3099 3092 3091 3093 3094 3095 3096 3096 3096 3096 3096 3095 3093 3093 3094 3095 3096 3095 3095 3096 3094 3094 3093 3092 3092 3093 3093 3093 3093 3091 3089 3088 3086 3081 3079 3083 3084 3085 3086 3087 3087 3087 3086 3085 3085 3085 3083 3082 3082 3080 3078 3076 3075 3075 3073 3071 3066 3056 3050 3050 3052 3054 3055 3056 3057 3057 3057 3058 3059 3059 3058 3055 3055 3055
3090 3090 3091 3092 3093 3095 3096 3096 3097 3099 3100 3101 3101 3097 3090 3087 3090 3091 3091 3092 3093 3093 3093 3093 3093 3091 3090 3089 3089 3090 3092 3092 3092 3091 3090 3090 3089 3088 3088 3088 3090 3090 3089 3088 3087 3086 3083 3078 3077 3078 3078 3081 3082 3082 3084 3084 3082 3081 3081 3080 3079 3079 3080 3078 3075 3074 3075 3074 3068 3064 3059 3053 3051 3047 3046 3050 3051 3052 3054 3054 3055 3056 3055 3055 3053 3051 3051 3051
3085 3086 3086 3088 3090 3091 3091 3091 3093 3095 3095 3097 3094 3088 3083 3085 3087 3088 3089 3089 3089 3090 3091 3090 3089 3089 3088 3086 3085 3087 3088 3088 3088 3087 3087 3086 3084 3082 3083 3085 3085 3085 3086 3086 3084 3083 3081 3076 3075 3076 3075 3077 3079 3078 3079 3079 3078 3077 3077 3077 3077 3077 3077 3076 3075 3073 3074 3070 3063 3059 3056 3054 3054 3047 3042 3047 3049 3049 3051 3051 3052 3052 3051 3050 3049 3048 3047 3046
3081 3081 3082 3083 3085 3085 3086 3087 3088 3089 3091 3091 3086 3081 3080 3081 3081 3083 3085 3086 3087 3088 3088 3087 3086 3085 3085 3084 3083 3084 3085 3084 3084 3084 3083 3083 3080 3078 3078 3080 3081 3081 3082 3083 3080 3079 3079 3073 3071 3073 3072 3073 3075 3074 3072 3072 3073 3073 3073 3074 3074 3073 3072 3072 3072 3070 3070 3066 3060 3056 3053 3052 3052 3046 3041 3045 3048 3048 3048 3048 3047 3045 3045 3046 3045 3044 3043 3042
3076 3077 3077 3078 3080 3080 3081 3082 3083 3084 3085 3082 3078 3076 3076 3075 3077 3080 3081 3082 3083 3084 3083 3083 3083 3082 3081 3081 3080 3081 3082 3081 3081 3081 3080 3079 3077 3075 3076 3076 3077 3077 3078 3079 3077 3076 3076 3072 3068 3069 3069 3068 3070 3068 3064 3066 3069 3069 3069 3069 3069 3068 3067 3067 3066 3065 3065 3062 3057 3054 3050 3047 3047 3045 3043 3044 3045 3044 3042 3041 3041 3040 3039 3039 3038 3038 3038 3037
3071 3072 3072 3073 3074 3075 3077 3077 3078 3078 3076 3073 3072 3072 3071 3072 3074 3075 3076 3078 3079 3080 3079 3079 3080 3079 3078 3078 3078 3078 3078 3077 3077 3077 3076 3075 3073 3073 3074 3073 3074 3074 3074 3074 3073 3072 3072 3069 3064 3064 3065 3062 3061 3061 3060 3062 3064 3064 3064 3064 3064 3064 3063 3062 3060 3059 3060 3056 3052 3050 3044 3040 3043 3044 3043 3043 3041 3037 3037 3038 3037 3035 3033 3032 3033 3032 3033 3032
3066 3066 3067 3069 3069 3070 3072 3072 3071 3071 3069 3068 3069 3068 3069 3070 3070 3070 3072 3073 3074 3075 3076 3075 3076 3075 3075 3075 3074 3074 3074 3073 3072 3072 3071 3070 3071 3070 3070 3071 3071 3071 3070 3069 3069 3068 3067 3064 3059 3059 3059 3055 3054 3056 3058 3058 3059 3059 3059 3059 3060 3060 3060 3059 3054 3052 3053 3049 3047 3045 3036 3033 3039 3041 3041 3041 3036 3031 3035 3035 3032 3030 3029 3028 3029 3028 3028 3027
3061 3061 3062 3064 3064 3065 3066 3066 3066 3066 3065 3064 3065 3066 3066 3067 3067 3067 3068 3068 3069 3070 3071 3071 3071 3071 3071 3071 3070 3071 3070 3068 3067 3068 3066 3065 3067 3067 3067 3068 3067 3067 3066 3064 3063 3063 3063 3059 3054 3052 3052 3050 3051 3054 3054 3054 3054 3054 3053 3054 3056 3056 3055 3054 3049 3047 3048 3044 3042 3041 3032 3027 3034 3037 3037 3036 3031 3029 3032 3030 3027 3027 3026 3025 3025 3024 3023 3023
3057 3057 3058 3059 3059 3061 3061 3060 3061 3062 3060 3061 3062 3063 3064 3063 3063 3064 3064 3063 3064 3065 3066 3066 3067 3067 3067 3067 3067 3067 3066 3063 3062 3062 3062 3061 3062 3063 3063 3063 3062 3062 3061 3058 3057 3058 3056 3053 3049 3046 3045 3046 3047 3049 3049 3048 3049 3047 3047 3049 3050 3049 3049 3048 3044 3044 3042 3038 3039 3037 3028 3024 3030 3033 3032 3030 3028 3028 3027 3025 3024 3023 3022 3021 3020 3019 3018 3017
3053 3053 3054 3054 3055 3056 3056 3055 3056 3057 3057 3058 3059 3059 3060 3060 3059 3059 3060 3060 3060 3061 3061 3061 3062 3063 3063 3063 3063 3062 3062 3060 3057 3057 3058 3058 3058 3058 3058 3059 3059 3057 3056 3053 3053 3054 3050 3047 3045 3044 3043 3042 3043 3044 3042 3041 3043 3042 3042 3044 3044 3044 3045 3043 3040 3039 3034 3032 3035 3031 3021 3022 3028 3029 3027 3026 3025 3025 3023 3021 3021 3019 3017 3016 3014 3013 3012 3011
3050 3050 3050 3050 3051 3052 3051 3051 3052 3053 3054 3055 3055 3055 3056 3055 3055 3056 3056 3056 3056 3057 3057 3057 3058 3058 3058 3059 3058 3057 3058 3057 3055 3054 3054 3054 3054 3055 3055 3055 3054 3053 3051 3050 3050 3049 3047 3044 3043 3042 3041 3039 3039 3039 3038 3038 3038 3038 3038 3040 3040 3040 3040 3038 3037 3035 3029 3026 3029 3025 3018 3020 3025 3025 3024 3023 3022 3020 3019 3017 3015 3014 3012 3011 3009 3007 3006 3004
3045 3046 3047 3047 3048 3048 3047 3048 3049 3049 3050 3051 3050 3051 3051 3051 3051 3053 3052 3052 3052 3053 3053 3053 3054 3054 3054 3054 3053 3052 3053 3053 3052 3050 3050 3050 3050 3051 3052 3051 3050 3049 3048 3048 3047 3045 3043 3041 3041 3039 3037 3035 3034 3035 3036 3036 3034 3034 3035 3035 3035 3035 3035 3035 3032 3028 3025 3022 3020 3019 3017 3016 3018 3020 3019 3018 3018 3016 3014 3013 3011 3010 3009 3008 3006 3004 3001 2999
3041 3042 3043 3043 3043 3044 3044 3044 3045 3045 3046 3047 3046 3046 3047 3047 3047 3048 3049 3048 3048 3049 3049 3048 3049 3049 3049 3049 3049 3047 3047 3048 3047 3046 3046 3046 3046 3047 3047 3046 3046 3044 3044 3044 3043 3042 3039 3035 3036 3035 3033 3032 3032 3031 3032 3031 3029 3029 3030 3029 3030 3030 3030 3030 3024 3021 3023 3020 3012 3014 3016 3011 3011 3014 3013 3012 3013 3011 3009 3009 3008 3006 3005 3004 3003 3001 2999 2996
3037 3037 3038 3039 3039 3039 3040 3040 3041 3042 3042 3043 3042 3042 3042 3043 3043 3044 3044 3044 3044 3045 3045 3043 3043 3044 3044 3045 3045 3043 3043 3043 3042 3042 3042 3042 3042 3042 3041 3041 3040 3039 3040 3039 3038 3039 3035 3031 3031 3030 3028 3028 3028 3026 3027 3026 3024 3025 3025 3023 3024 3024 3023 3021 3017 3017 3021 3015 3008 3011 3012 3007 3007 3009 3007 3006 3007 3006 3004 3003 3003 3002 3000 2998 2996 2995 2993 2992
3032 3032 3033 3035 3035 3035 3036 3037 3038 3038 3039 3039 3038 3038 3038 3038 3039 3040 3041 3040 3039 3040 3041 3039 3039 3039 3039 3040 3040 3039 3040 3039 3038 3039 3039 3038 3038 3037 3036 3036 3035 3035 3035 3034 3034 3034 3031 3027 3027 3026 3023 3022 3024 3022 3022 3022 3020 3019 3019 3019 3019 3017 3015 3014 3011 3012 3013 3008 3005 3007 3006 3002 3003 3004 3002 3001 3000 2999 2999 2997 2996 2995 2994 2992 2990 2988 2987 2986
3027 3027 3029 3030 3030 3031 3032 3033 3034 3034 3035 3035 3034 3034 3035 3035 3035 3035 3036 3035 3034 3035 3036 3035 3034 3034 3034 3035 3035 3035 3035 3035 3034 3034 3034 3033 3033 3032 3031 3030 3030 3030 3030 3029 3029 3030 3028 3024 3023 3023 3019 3018 3019 3019 3019 3018 3016 3013 3013 3013 3013 3010 3008 3008 3007 3006 3005 3002 3002 3002 2998 2996 2997 2996 2995 2995 2994 2994 2993 2991 2990 2989 2988 2987 2985 2984 2983 2982
3022 3023 3024 3025 3025 3027 3027 3028 3029 3029 3029 3030 3029 3030 3031 3031 3031 3031 3030 3031 3030 3030 3032 3031 3029 3030 3030 3031 3031 3030 3030 3031 3030 3029 3029 3028 3028 3028 3027 3026 3026 3026 3025 3026 3026 3026 3025 3021 3019 3020 3016 3012 3015 3016 3013 3012 3011 3007 3006 3007 3005 3003 3002 3002 3002 3001 3000 2998 2997 2996 2992 2990 2990 2989 2989 2989 2989 2989 2988 2986 2985 2984 2982 2981 2980 2980 2979 2977
3018 3018 3020 3020 3020 3022 3022 3023 3024 3024 3024 3025 3025 3026 3027 3026 3027 3027 3026 3027 3027 3026 3026 3026 3025 3025 3026 3026 3026 3026 3027 3026 3025 3025 3024 3023 3023 3023 3023 3022 3023 3022 3021 3022 3021 3021 3021 3018 3016 3018 3012 3006 3011 3011 3007 3008 3005 2998 2999 3001 2999 2997 2997 2995 2994 2995 2995 2993 2991 2989 2986 2985 2985 2984 2984 2984 2983 2983 2982 2982 2981 2980 2979 2977 2976 2975 2973 2971